This demonstration page uses our WeatherBlox Daily Observations layout. Learn more.

Left ArrowRight Arrow

36.17497, -115.13722

Hourly Observations for April 5, 2016

Temp ( °F °C ) Dew Point ( °F °C ) Humidity (%) Winds ( mph kmh ) Pressure ( in mb ) Visibility ( mi km ) Precip ( " mm )
12:53 am 00:53 Clear 67 19.4 26 -3.3 21 21 WNW 5 7 30.04 1017 10 16.0934 0 0
1:53 am 01:53 Clear 68 20 23 -5 18 18 NNW 7 11 30.04 1017 10 16.0934 0 0
2:53 am 02:53 Clear 64 17.8 26 -3.3 24 24 WNW 7 11 30.05 1018 10 16.0934 0 0
3:53 am 03:53 Clear 66 18.9 22 -5.6 19 19 WNW 5 7 30.05 1018 10 16.0934 0 0
4:53 am 04:53 Clear 64 17.8 22 -5.6 20 20 NNW 10 17 30.05 1018 10 16.0934 0 0
5:53 am 05:53 Clear 64 17.8 22 -5.6 20 20 N 10 17 30.08 1019 10 16.0934 0 0
6:53 am 06:53 Sunny 63 17.2 23 -5 22 22 NNE 10 17 30.11 1020 10 16.0934 0 0
7:53 am 07:53 Sunny 66 18.9 26 -3.3 22 22 NW 9 15 30.14 1021 10 16.0934 0 0
8:53 am 08:53 Sunny 72 22.2 25 -3.9 17 17 NNE 5 7 30.15 1021 10 16.0934 0 0
9:53 am 09:53 Sunny 77 25 27 -2.8 16 16 NE 6 9 30.16 1021 10 16.0934 0 0
10:53 am 10:53 Sunny 79 26.1 27 -2.8 15 15 VRB 6 9 30.17 1022 10 16.0934 0 0
11:53 am 11:53 Sunny 82 27.8 27 -2.8 13 13 E 13 20 30.16 1021 10 16.0934 0 0
12:53 pm 12:53 Sunny 84 28.9 25 -3.9 11 11 ENE 8 13 30.14 1021 10 16.0934 0 0
1:53 pm 13:53 Sunny 86 30 23 -5 10 10 undefined N/A 30.1 1019 10 16.0934 0 0
2:53 pm 14:53 Sunny 88 31.1 22 -5.6 9 9 NNE 12 19 30.07 1018 10 16.0934 0 0
3:53 pm 15:53 Sunny 88 31.1 19 -7.2 8 8 N 13 20 30.06 1018 10 16.0934 0 0
4:53 pm 16:53 Sunny 90 32 19 -7 7 7 NNW 9 15 29.91 1013 10 16.0934 0 0
5:53 pm 17:53 Sunny 88 31.1 16 -8.9 7 7 N 8 13 30.04 1017 10 16.0934 0 0
6:53 pm 18:53 Sunny 85 29.4 15 -9.4 7 7 NNW 12 19 30.04 1017 10 16.0934 0 0
7:53 pm 19:53 Clear 82 27.8 18 -7.8 9 9 NE 5 7 30.08 1019 10 16.0934 0 0
8:53 pm 20:53 Clear 81 27.2 17 -8.3 9 9 NNW 7 11 30.11 1020 10 16.0934 0 0
9:53 pm 21:53 Clear 76 24.4 18 -7.8 11 11 NNW 7 11 30.14 1021 10 16.0934 0 0
10:53 pm 22:53 Clear 75 23.9 17 -8.3 11 11 E 3 6 30.18 1022 10 16.0934 0 0
11:53 pm 23:53 Clear 76 24.4 20 -6.7 12 12 Calm 30.19 1022 10 16.0934 0 0

Powered by AerisWeather